Location: Anxaumont
(46.5836°N, 0.4428°E)
Time: 16:35:53
(UTC+00:00)

Daily predictions for brighter satellites

Satellite Brightness Start Highest point End
(mag) Time Altitude Azimuth Time Altitude Azimuth Time Altitude Azimuth
IRS-1A Rocket 4.4 20:24:39 10° SSE 20:30:03 59° ENE 20:35:28 10° N
Cosmos 2360 Rocket 4.0 20:25:57 10° N 20:30:08 20° NE 20:34:17 10° E
Cosmos 2285 Rocket 4.2 20:27:30 10° SSW 20:33:50 86° WNW 20:40:17 10° NNE
Cosmos 2333 Rocket 4.0 20:30:37 10° N 20:34:53 21° NE 20:39:10 10° E
IRIDIUM 114 4.4 20:30:49 10° N 20:36:04 88° E 20:41:18 10° S
Atlas Centaur 2 4.1 20:30:21 10° SW 20:36:33 24° S 20:42:45 10° SE
SL-16 R/B 3.1 20:33:01 10° NNW 20:38:18 38° NE 20:43:34 10° ESE
Cosmos 1441 Rocket 3.8 20:35:01 10° N 20:38:24 37° ENE 20:41:46 10° SE
ERS-1 Rocket 3.3 20:33:55 10° SSE 20:38:49 55° ENE 20:43:43 10° N
Cosmos 1763 Rocket 3.5 20:34:37 10° NNW 20:39:55 89° ENE 20:45:07 10° SSE
Cosmos 2369 3.9 20:34:20 10° NNW 20:40:04 77° WSW 20:45:47 10° SSE
Lacrosse 5 rocket 4.0 20:39:34 10° WSW 20:40:38 11° WSW 20:41:41 10° SW
Resurs 01 Rocket 3.5 20:36:54 10° SSW 20:40:42 28° W 20:44:32 10° NW
RESURS DK-1 4.1 20:38:26 10° N 20:41:35 21° NE 20:44:43 10° E
Cosmos 2082 Rocket 2.3 20:36:50 10° SSW 20:42:33 87° WNW 20:48:18 10° NNE
Spot 2 Rocket 4.0 20:38:38 10° SE 20:43:26 46° ENE 20:48:17 10° N
Cosmos 1933 Rocket 3.6 20:42:02 10° N 20:46:28 68° E 20:50:52 10° SSE
Cosmos 1470 2.6 20:43:22 10° N 20:47:04 76° E 20:50:45 10° SSE
SPOT 5 2.7 20:43:44 10° S 20:48:03 80° WSW 20:52:26 10° NNW
Cosmos 1300 4.5 20:48:02 10° NNE 20:50:25 17° ENE 20:52:47 10° ESE
Cosmos 1908 3.1 20:50:41 10° N 20:54:16 62° E 20:57:41 11° SSE
Cosmos 1674 3.2 20:56:18 10° SSW 20:59:42 52° WNW 21:03:06 10° N
IRS-1C Rocket 4.2 20:54:51 10° S 21:00:06 77° WSW 21:05:23 10° NNW
ATLAS 2AS CENTAUR R/B 3.7 20:54:19 10° NNW 21:00:45 38° NE 21:06:54 10° ESE
KORONAS-FOTON 4.3 21:02:38 10° SSW 21:06:18 60° W 21:10:01 10° N
Cosmos 468 Rocket 4.1 21:01:49 10° NNW 21:07:04 81° WSW 21:11:54 12° SSE
Ariane Rocket 3.1 21:03:07 11° SSE 21:07:54 71° ENE 21:12:59 10° N
Cosmos 1842 4.0 21:06:16 10° SSW 21:09:49 49° WNW 21:13:24 10° N
Cosmos 1758 4.3 21:06:46 10° N 21:10:17 31° ENE 21:12:54 15° SE
COSMOS 2406 3.8 21:10:09 10° SW 21:15:50 62° WNW 21:21:34 10° NNE
SPOT 3 Rocket 3.6 21:12:14 13° SSE 21:16:50 77° ENE 21:22:01 10° NNW
Meteor 1-13 Rocket 4.3 21:12:43 10° S 21:18:33 86° E 21:24:17 10° NNE
Cosmos 1707 Rocket 4.5 21:16:10 16° SE 21:19:04 32° E 21:23:02 10° NNE
SL-27 R/B 3.9 21:19:33 13° E 21:19:33 13° E 21:20:58 10° ENE
Cosmos 1980 Rocket 3.8 21:17:52 10° NW 21:22:37 28° WSW 21:27:21 10° SSW
Cosmos 2322 Rocket 2.7 21:17:28 10° NNW 21:23:01 52° ENE 21:27:28 16° SE
S3M 4.0 21:17:01 10° N 21:23:27 82° E 21:29:07 13° S
Cosmos 1655 Rocket 4.2 21:22:57 12° S 21:28:49 60° E 21:35:06 10° NNE
SJ 16-02 2.8 21:28:53 17° ESE 21:30:17 19° E 21:33:24 10° NE
Cosmos 2278 3.8 21:26:15 10° NNW 21:31:58 73° WSW 21:36:25 17° SSE
Landsat 5 3.7 21:28:24 10° NNE 21:32:16 49° E 21:35:02 18° S
Landsat 4 3.9 21:32:54 17° S 21:35:24 58° WSW 21:38:49 10° NNW
Cosmos 1741 Rocket 4.3 21:31:50 14° S 21:36:09 48° ESE 21:41:14 10° NNE
Cosmos 540 Rocket 4.5 21:32:11 10° NW 21:36:59 40° WSW 21:41:30 11° S
USA 245 4.4 21:34:18 11° SSW 21:37:07 35° W 21:40:51 10° NNW
Tiangong -0.5 21:34:46 10° WSW 21:37:07 19° SSW 21:37:28 19° S
USA 281 4.0 21:32:45 13° ESE 21:38:12 43° NE 21:44:21 10° NNW
Cosmos 2266 Rocket 4.1 21:32:12 10° S 21:38:30 84° W 21:44:57 10° N
Cosmos 1400 Rocket 2.7 21:35:14 12° S 21:38:46 88° W 21:42:39 10° N
MetOp-A 4.1 21:37:25 19° SSE 21:41:06 69° ENE 21:46:21 10° N
Okean 3 4.2 21:39:26 22° SE 21:41:24 34° E 21:45:11 10° NNE
Cosmos 1733 Rocket 3.3 21:37:17 10° N 21:41:38 57° ENE 21:44:16 23° SSE
Terra 2.6 21:37:47 11° S 21:42:04 46° W 21:46:38 10° NNW
Cosmos 2237 4.4 21:38:07 10° NNW 21:43:49 67° WSW 21:47:58 19° S
Cosmos 968 Rocket 4.0 21:41:01 19° SSE 21:44:13 40° ESE 21:49:03 10° NE
SL-4 R/B 3.2 21:42:45 10° W 21:46:27 42° N 21:50:24 10° ENE
Cosmos 2228 Rocket 3.1 21:44:42 18° S 21:48:03 73° E 21:52:37 10° NNE
Cosmos 2219 Rocket 3.2 21:46:22 10° NNW 21:51:38 38° NE 21:55:47 15° ESE
Cosmos 1315 Rocket 4.1 21:51:04 22° ESE 21:52:15 25° E 21:55:33 10° NE
ATLAS CENTAUR R/B 1.3 21:52:13 29° SSE 21:53:27 40° ESE 21:56:50 10° NE
SeaSat 1 4.0 21:51:58 11° SSW 21:55:53 26° WSW 22:00:00 10° NW
Meteor 2-10 Rocket 3.8 21:51:04 10° NNW 21:56:41 73° W 22:00:34 19° S
Cosmos 1953 3.5 21:56:00 10° NNE 21:59:23 29° ENE 22:00:51 22° ESE
H-2A R/B 4.2 21:59:30 15° ESE 22:01:46 23° ENE 22:05:10 10° NNE
Cosmos 1455 3.4 21:59:37 10° NNE 22:02:36 25° ENE 22:03:41 22° ESE
Cosmos 1242 Rocket 4.4 22:04:20 12° ENE 22:04:20 12° ENE 22:05:02 10° ENE
Okean 1-7 3.6 22:04:58 28° SE 22:06:39 40° E 22:10:43 10° NNE
USA 234 3.9 22:00:33 10° NE 22:06:57 59° NNW 22:13:20 10° WSW
BREEZE-M DEB (TANK) 2.0 22:05:55 10° WNW 22:08:02 69° SSW 22:09:09 34° SE
CZ-2C R/B 4.1 22:05:40 10° NNE 22:09:53 43° E 22:11:36 29° SSE
Cosmos 2315 Rocket 4.4 22:08:11 10° NNW 22:14:27 63° W 22:19:13 18° S
Cosmos 2360 Rocket 2.2 22:09:10 10° NNW 22:14:53 86° WSW 22:18:06 27° SSE
Cosmos 841 Rocket 4.4 22:12:35 10° NW 22:17:31 42° WSW 22:20:45 20° SSW
RESURS DK-1 2.9 22:15:37 10° NW 22:19:32 46° WSW 22:21:10 29° SSW
Cosmos 2333 Rocket 2.2 22:14:09 10° NNW 22:19:56 86° WSW 22:23:08 28° SSE
SL-14 R/B 4.1 22:17:26 16° SW 22:20:09 44° WNW 22:23:49 10° N
SL-16 R/B 3.1 22:17:10 10° NW 22:22:23 38° WSW 22:25:47 20° SSW
Atlas Centaur 2 4.0 22:18:35 10° WSW 22:24:40 23° S 22:25:49 22° S
Cosmos 1300 3.8 22:22:00 10° NNW 22:25:15 33° W 22:26:54 22° SW
EXPRESS MD2 3.3 22:24:10 10° W 22:26:23 38° N 22:27:54 15° ENE
BREEZE-M DEB (TANK) 4.2 22:12:34 10° W 22:31:08 76° NNW 22:35:34 10° ENE
Aureole 3 3.7 22:30:50 27° SSW 22:32:44 63° WNW 22:37:15 10° N
Cosmos 1703 Rocket 3.9 22:32:44 35° SSE 22:34:15 53° E 22:38:36 10° NNE
Cosmos 1833 4.1 22:30:08 18° SSW 22:34:26 86° ESE 22:40:05 10° NNE
Cosmos 1346 Rocket 3.9 22:31:21 10° NNW 22:34:54 35° W 22:36:35 23° SW
Cosmos 1862 Rocket 4.3 22:32:48 19° SW 22:35:42 49° WNW 22:40:01 10° N
DNEPR-1 R/B 4.4 22:29:53 10° NW 22:36:43 75° NE 22:39:56 27° SE
Meteor 1-4 Rocket 2.6 22:41:49 43° WSW 22:42:25 53° WNW 22:45:22 10° N
Cosmos 1932 4.4 22:38:31 19° SSW 22:43:13 70° ESE 22:49:28 10° NE
Cosmos 839 Rocket 4.0 22:37:23 10° NW 22:44:22 84° SW 22:47:42 30° SSE
Cosmos 2322 4.1 22:40:44 10° NNW 22:46:20 55° ENE 22:49:29 25° SE
Cosmos 2237 Rocket 4.1 22:42:40 10° N 22:47:08 23° NE 22:51:36 10° E
BlueWalker 3 4.2 22:50:03 13° E 22:50:03 13° E 22:50:37 10° E
ATLAS 2AS CENTAUR R/B 2.8 22:45:18 10° NW 22:52:00 62° WSW 22:55:16 30° S
Cosmos 2333 4.4 22:46:30 10° NNW 22:52:12 63° WSW 22:54:50 32° S
SL-27 R/B 4.0 22:50:57 17° WSW 22:52:12 24° WNW 22:54:34 10° N
ARIANE 5 R/B 2.8 22:54:58 37° SSW 22:56:27 59° WSW 23:00:45 10° NNW
SL-24 R/B - RUBIN 2 4.4 22:51:28 10° NW 22:58:10 89° ENE 23:01:28 30° SE
PSLV R/B 3.9 22:57:28 10° N 23:01:28 72° WNW 23:02:51 39° SSW
Okean 2 3.9 23:00:22 31° SW 23:01:58 51° WNW 23:05:54 10° N
Cosmos 2322 Rocket 3.6 23:02:03 10° NW 23:06:44 27° WSW 23:09:15 20° SW
Cosmos 1703 4.4 23:06:48 26° E 23:07:01 27° E 23:10:09 10° NNE
Cosmos 1570 Rocket 4.0 23:01:44 10° NNW 23:07:07 80° ENE 23:09:22 36° SSE
SJ 16-02 2.3 23:05:35 19° SW 23:08:18 44° WNW 23:12:27 10° N
Cosmos 1745 Rocket 4.0 23:05:11 32° S 23:08:19 78° E 23:14:42 10° N
Cosmos 1241 Rocket 4.5 23:04:14 16° SW 23:09:19 82° NW 23:15:36 10° NE
COSMOS 2455 3.6 23:08:59 31° SE 23:10:36 36° ESE 23:16:02 10° NE
Cosmos 2297 Rocket 3.4 23:13:10 24° ESE 23:14:24 26° ESE 23:18:57 10° NE
Nadezhda 1 Rocket 4.0 23:12:25 10° N 23:18:45 78° W 23:21:42 34° S
GP-B 3.8 23:16:10 10° N 23:20:23 45° W 23:22:05 30° SW
Cosmos 1408 2.3 23:22:14 60° NE 23:22:14 60° NE 23:24:52 10° NNE
USA 281 3.8 23:19:37 28° SSW 23:22:40 44° WSW 23:28:56 10° NW
COSMOS 2428 2.7 23:20:00 10° NNW 23:25:43 87° ENE 23:28:13 36° SSE
SL-4 R/B 3.0 23:21:50 10° WNW 23:25:45 47° NNE 23:29:54 10° E
Cosmos 1315 Rocket 4.5 23:26:20 18° WSW 23:28:18 27° WNW 23:31:45 10° N
GEOS 3 Rocket 4.1 23:25:47 10° NE 23:30:35 39° ESE 23:31:28 36° SE
ATLAS CENTAUR R/B 3.4 23:28:26 10° W 23:31:16 22° NW 23:34:09 10° NNE
Cosmos 1782 Rocket 3.8 23:28:58 10° NNW 23:33:12 57° W 23:34:15 43° SW
CZ-3 Stage 3 4.3 23:11:11 10° W 23:33:55 32° SW 23:37:06 27° S
Cosmos 1953 4.0 23:32:04 10° NW 23:35:03 22° W 23:35:58 20° WSW
Cosmos 2219 Rocket 2.9 23:30:21 10° NW 23:35:36 39° WSW 23:37:28 30° SSW
Cosmos 1242 Rocket 3.7 23:35:32 24° WNW 23:35:36 24° WNW 23:37:57 10° NNW
H-2A R/B 3.3 23:35:29 34° SW 23:36:28 39° W 23:40:31 10° NNW
Cosmos 1455 3.8 23:34:14 10° NW 23:36:53 20° W 23:37:24 20° WSW
Cosmos 2208 Rocket 3.9 23:32:38 10° NNW 23:37:51 76° WSW 23:39:34 42° S
Cosmos 1892 4.3 23:38:13 20° E 23:38:20 20° E 23:40:57 10° NE
Cosmos 371 Rocket 3.4 23:38:59 44° SSE 23:40:07 56° ESE 23:44:51 10° NNE
Cosmos 158 Rocket 3.9 23:35:01 10° NNW 23:40:21 78° WSW 23:42:07 42° S
BREEZE-M DEB (TANK) 4.4 23:38:50 10° WNW 23:42:21 68° N 23:54:05 10° E
Cosmos 836 Rocket 4.4 23:37:32 10° NNW 23:42:46 83° WSW 23:44:34 42° SSE
Spot 4 4.5 23:42:36 34° SW 23:43:59 43° W 23:48:35 10° NNW
NOSS 8 (E) 4.4 23:45:42 74° S 23:45:58 81° SE 23:49:10 10° NE
Cosmos 773 Rocket 4.1 23:42:33 10° NNW 23:47:42 69° ENE 23:49:51 35° SE
Cosmos 2151 Rocket 4.3 23:44:26 10° N 23:48:40 44° ENE 23:50:03 33° ESE
ALOS 2 3.1 23:49:16 41° SW 23:50:14 49° W 23:54:31 10° NNW
GENESIS II 4.3 23:49:40 46° WSW 23:50:30 62° NW 23:54:08 10° NNE
Cosmos 1503 Rocket 4.2 23:51:55 40° SSE 23:53:34 58° ESE 23:58:46 10° NNE
Cosmos 1300 Rocket 4.3 23:51:21 10° NNW 23:55:23 40° W 23:56:18 35° WSW
